Flag for Japan Weather past 2 weeks in Sapporo, Japan

Now
33 °F

Snow flurries. Overcast.


Feels Like: 24 °F
Forecast: 22 / 37 °F
Wind: 13 mph from Northwest

Location: Sapporo

Current Time: Feb 28, 2015 at 4:04:58 PM

Latest Report: Feb 28, 2015 at 3:00 PM


Visibility: 3 mi

Pressure: 30.22 "Hg

Humidity: 74%

Dew point: 26 °F

Location of SapporoLocation

Historic Weather in Sapporo — Graph

°F

Sapporo temperature yesterday

Maximum temperature yesterday: 41 °F (at 10:00 AM)
Minimum temperature yesterday: 33 °F (at 11:00 PM)
Average temperature yesterday: 36 °F

Past Weeks' High & Low Weather Summary

 TemperatureHumidityPressure
High45 °F (Feb 23, 11:00 AM)93% (Feb 13, 7:00 PM)30.37 "Hg (Feb 13, 7:00 PM)
Low26 °F (Feb 21, 6:00 AM)34% (Feb 23, 1:00 PM)29.32 "Hg (Feb 27, 1:00 PM)
Average34 °F70%29.92 "Hg
* Reported Feb 13 2:00 PM — Feb 28 2:00 PM, Sapporo, Weather by CustomWeather, © 2015

Note: Actual official high and low records may vary slightly from our data, if they occured in-between our weather recording intervals... More about our weather records

Advertising

Sapporo weather history for previous 24 hours

 ConditionsComfort  
Time TempWeatherWind HumidityBarometerVisibility
2:00 PM
Sat, Feb 28
36 °FChilly.14 mph53%30.21 "HgN/A
1:00 PM35 °FChilly.12 mph57%30.20 "HgN/A
12:00 PM34 °FSleet. Overcast.17 mph65%30.20 "Hg6 mi
11:00 AM35 °FChilly.14 mph60%30.19 "HgN/A
10:00 AM35 °FChilly.13 mph59%30.17 "HgN/A
9:00 AM32 °FSnow flurries. Overcast.15 mph82%30.16 "Hg6 mi
8:00 AM32 °FChilly.14 mph87%30.15 "HgN/A
7:00 AM32 °FChilly.15 mph81%30.11 "HgN/A
5:00 AM33 °FChilly.13 mph78%30.04 "HgN/A
4:00 AM32 °FChilly.18 mph86%30.00 "HgN/A
3:00 AM32 °FSnow flurries. Overcast.17 mph84%29.95 "Hg9 mi
2:00 AM32 °FChilly.24 mph72%29.92 "HgN/A
1:00 AM34 °FChilly.24 mph70%29.89 "HgN/A
12:00 AM33 °FChilly.24 mph78%29.85 "HgN/A
11:00 PM
Fri, Feb 27
33 °FChilly.24 mph77%29.80 "HgN/A
10:00 PM34 °FChilly.24 mph78%29.74 "HgN/A
9:00 PM35 °FOvercast.18 mph74%29.68 "Hg12 mi
8:00 PM36 °FChilly.22 mph56%29.61 "HgN/A
7:00 PM36 °FChilly.16 mph63%29.53 "HgN/A
6:00 PM34 °FLight mixture of precip. Overcast.7 mph92%29.44 "Hg2 mi
5:00 PM34 °FChilly.6 mph93%29.38 "HgN/A
4:00 PM37 °FChilly.10 mph82%29.35 "HgN/A
Weather by CustomWeather, © 2015

See weather overviewHow to use our weather pages